ARIANE 44LP DEB, 26812

Orbit data source: Space-Track

ARIANE 44LP DEB, 26812 is space debris in HEO originally from a launch on Sun, 11 Dec 1988 UTC launched from the French Guiana (FRGUI). Debris objects in space refer to the collection of defunct objects orbiting the Earth. Examples of debris include non-operational satellites, rocket bodies, and fragments generated from explosions, collisions, or faulty payload assembly.

Loading next visibility...
Identifier
26812, 1988-109P
Orbit
HEO
Country
Flag of FRFR
Related business
Manufacturer
Unknown
Mission
Spacecraft
Bus & Motor
Unknown
Mass
Unknown
Launch date (UTC)
1988-12-11 (37 years ago)
Launch vehicle
Unknown
Launch site
French Guiana (FRGUI)
Object type
Payload
Rocket body
Debris
Shape & HBR
Unknown shape, 1.1 m
Radar Cross Section
Medium (>0.1 m² and <1 m²)

Expand to show TLE details & history
Last TLE update: 7 hours ago

TLE from 7 hours ago
0 ARIANE 44LP DEB
1 26812U 88109P   25310.90626797 -.00000022  00000-0  00000-0 0  9997
2 26812   6.2678 245.0328 7015717  66.3301  51.5926  2.21724356225268
Epoch: 2025-11-06T21:45Z
TLE epoch observation values (Epoch: 2025-11-06T21:45:01.552Z)
Latitude
-2.33101°
Longitude
74.2842°
Altitude
18,975.36 km
Speed
3.924 km/s
True Right ascension
05h 47m 35s
True Declination
-2° 19' 38"
Sunlit
Object was in daylight at epoch
Visualization orbit readout
Latitude
Unknown
Longitude
Unknown
Altitude
Unknown
Speed
Unknown
Apparent Right ascension
Unknown
Apparent Declination
Unknown
Sunlit
N/A
Visualization observer readout
Local Sidereal Time
01:00:31
Azimuth
Unknown
Elevation
Unknown
Doppler factor
Unknown
Orbital elements
Apogee altitude
35,901.14 km
Perigee altitude
1,036.968 km
Semi-major axis
24,847.191 km
Eccentricity
0.70157
Inclination
6.2678°
RAAN
245.0328°
Arg. of periapsis
66.3301°
True anomaly
135.80142°
Mean anomaly
51.5926°
Eccentric anomaly
91.77051°
Mean motion
0.55415 °/min
Orbital period
649.64 mins
BSTAR
0
Loading maneuver chart data...
Computing Atmospheric mass density...
Loading historical data...
Loading historical data...
Loading historical data...
Loading historical data...
Loading historical data...
Loading historical data...
Loading historical data...

Documentation

Showing up to 5 results
|